BREEZE-M DEB, 32499

Orbit data source: Space-Track

BREEZE-M DEB, 32499 is space debris in HEO originally from a launch on Tue, 28 Feb 2006 UTC launched from the Tyuratam Missile And Space Complex (TTMTR). Debris objects in space refer to the collection of defunct objects orbiting the Earth. Examples of debris include non-operational satellites, rocket bodies, and fragments generated from explosions, collisions, or faulty payload assembly.

Loading next visibility...
Identifier
32499, 2006-006AN
Orbit
HEO
Country
Flag of CISCIS
Related business
Manufacturer
Khrunichev
Mission
Spacecraft
Bus & Motor
Unknown
Mass
Unknown
Launch date (UTC)
2006-02-28 (20 years ago)
Launch vehicle
Unknown
Launch site
Tyuratam Missile And Space Complex (TTMTR)
Object type
Payload
Rocket body
Debris
Shape & HBR
Unknown shape, 0.1 m
Radar Cross Section
Medium (>0.1 m² and <1 m²)

Expand to show TLE details & history
Last TLE update: 2 days ago

TLE from 2 days ago
0 BREEZE-M DEB
1 32499U 06006AN  26161.75531720  .00006992  00000-0  30251-2 0  9994
2 32499  51.6704 344.2789 4707328  65.6265 335.9309  6.01282804 25369
Epoch: 2026-06-10T18:07Z
TLE epoch observation values (Epoch: 2026-06-10T18:07:39.406Z)
Latitude
0.00002°
Longitude
173.25235°
Altitude
1,941.823 km
Speed
8.039 km/s
True Right ascension
22h 57m 06s
True Declination
0° 00' 00"
Sunlit
Object was in daylight at epoch
Visualization orbit readout
Latitude
Unknown
Longitude
Unknown
Altitude
Unknown
Speed
Unknown
Apparent Right ascension
Unknown
Apparent Declination
Unknown
Sunlit
N/A
Visualization observer readout
Local Sidereal Time
19:45:19
Azimuth
Unknown
Elevation
Unknown
Doppler factor
Unknown
Orbital elements
Apogee altitude
12,410.553 km
Perigee altitude
383.28 km
Semi-major axis
12,775.053 km
Eccentricity
0.47073
Inclination
51.6704°
RAAN
344.2789°
Arg. of periapsis
65.6265°
True anomaly
294.52807°
Mean anomaly
335.9309°
Eccentric anomaly
317.82138°
Mean motion
1.50314 °/min
Orbital period
239.5 mins
BSTAR
0.0030251
Loading maneuver chart data...
Computing Atmospheric mass density...
Loading historical data...
Loading historical data...
Loading historical data...
Loading historical data...
Loading historical data...
Loading historical data...
Loading historical data...

Documentation

Showing up to 5 results
|